When you browse on this site, cookies collect data to enhance your experience and personalize the content and advertising you see.
Visit our Privacy Policy to learn more. By continuing to use the site, you agree to this use of cookies and data.
  • In Spain
  • List of Countries
  • For 7 days
  • Water Temperature
  • Satellite Maps
  • Weather Map
  • Weather Widgets
  • user-avatar
    Login

    Hourly Weather Santiago del Estero

    Today, 24 July, Wednesday

    Time Temperature Precipitation Wind Pressure Humidity
    00:00 +8°C° 0 mm 3 mps 754 mmHg 51%
    01:00 +8°C° 0 mm 3 mps 754 mmHg 53%
    02:00 +8°C° 0 mm 3 mps 754 mmHg 54%
    03:00 +7°C° 0 mm 3 mps 754 mmHg 57%
    04:00 +7°C° 0 mm 3 mps 754 mmHg 60%
    05:00 +5°C° 0 mm 3 mps 754 mmHg 63%
    06:00 +7°C° 0 mm 3 mps 754 mmHg 62%
    07:00 +7°C° 0 mm 3 mps 755 mmHg 61%
    08:00 +8°C° 0 mm 3 mps 755 mmHg 60%
    09:00 +9°C° 0 mm 3 mps 755 mmHg 55%
    10:00 +11°C° 0 mm 4 mps 755 mmHg 50%
    11:00 +13°C° 0 mm 4 mps 755 mmHg 45%
    12:00 +13°C° 0 mm 4 mps 755 mmHg 45%
    13:00 +13°C° 0 mm 5 mps 754 mmHg 46%
    14:00 +13°C° 0 mm 5 mps 753 mmHg 46%
    15:00 +13°C° 0 mm 5 mps 753 mmHg 48%
    16:00 +13°C° 0 mm 4 mps 753 mmHg 49%
    17:00 +12°C° 0 mm 4 mps 753 mmHg 50%
    18:00 +11°C° 0 mm 4 mps 753 mmHg 55%
    19:00 +10°C° 0 mm 3 mps 753 mmHg 60%
    20:00 +9°C° 0 mm 3 mps 753 mmHg 65%
    21:00 +9°C° 0 mm 2 mps 753 mmHg 67%
    22:00 +8°C° 0 mm 2 mps 753 mmHg 68%
    23:00 +9°C° 0 mm 1 mps 753 mmHg 69%

    Tomorrow, 25 July, Thursday

    Time Temperature Precipitation Wind Pressure Humidity
    00:00 +9°C° 0.1 mm 1 mps 753 mmHg 69%
    01:00 +9°C° 0.1 mm 1 mps 752 mmHg 69%
    02:00 +9°C° 0.1 mm 1 mps 752 mmHg 69%
    03:00 +8°C° 0.2 mm 1 mps 751 mmHg 72%
    04:00 +7°C° 0.2 mm 2 mps 751 mmHg 75%
    05:00 +6°C° 0.2 mm 2 mps 750 mmHg 78%
    06:00 +6°C° 0 mm 2 mps 750 mmHg 78%
    07:00 +7°C° 0 mm 2 mps 750 mmHg 78%
    08:00 +7°C° 0 mm 2 mps 751 mmHg 78%
    09:00 +8°C° 0 mm 2 mps 751 mmHg 70%
    10:00 +10°C° 0 mm 2 mps 750 mmHg 61%
    11:00 +12°C° 0 mm 2 mps 750 mmHg 53%
    12:00 +13°C° 0 mm 2 mps 749 mmHg 49%
    13:00 +14°C° 0 mm 2 mps 749 mmHg 46%
    14:00 +15°C° 0 mm 2 mps 748 mmHg 42%
    15:00 +15°C° 0 mm 2 mps 747 mmHg 43%
    16:00 +15°C° 0 mm 2 mps 747 mmHg 44%
    17:00 +15°C° 0 mm 2 mps 747 mmHg 44%
    18:00 +13°C° 0 mm 2 mps 747 mmHg 52%
    19:00 +11°C° 0 mm 3 mps 747 mmHg 60%
    20:00 +9°C° 0 mm 3 mps 748 mmHg 68%
    21:00 +8°C° 0 mm 2 mps 748 mmHg 73%
    22:00 +7°C° 0 mm 2 mps 748 mmHg 78%
    23:00 +7°C° 0 mm 1 mps 749 mmHg 83%

    Day after tomorrow, 26 July, Friday

    Time Temperature Precipitation Wind Pressure Humidity
    00:00 +7°C° 0 mm 1 mps 749 mmHg 85%
    01:00 +7°C° 0 mm 1 mps 748 mmHg 87%
    02:00 +6°C° 0 mm 1 mps 748 mmHg 88%
    03:00 +6°C° 0 mm 1 mps 748 mmHg 89%
    04:00 +6°C° 0 mm 1 mps 748 mmHg 89%
    05:00 +6°C° 0 mm 1 mps 748 mmHg 89%
    06:00 +7°C° 0 mm 1 mps 749 mmHg 87%
    07:00 +8°C° 0 mm 1 mps 749 mmHg 85%
    08:00 +7°C° 0 mm 2 mps 750 mmHg 83%
    09:00 +10°C° 0 mm 2 mps 750 mmHg 73%
    10:00 +13°C° 0 mm 2 mps 750 mmHg 62%
    11:00 +16°C° 0 mm 2 mps 750 mmHg 52%
    12:00 +17°C° 0 mm 2 mps 750 mmHg 47%
    13:00 +19°C° 0 mm 2 mps 749 mmHg 42%
    14:00 +20°C° 0 mm 2 mps 748 mmHg 37%
    15:00 +20°C° 0 mm 2 mps 748 mmHg 37%
    16:00 +20°C° 0 mm 2 mps 748 mmHg 38%
    17:00 +20°C° 0 mm 2 mps 748 mmHg 38%
    18:00 +18°C° 0 mm 2 mps 748 mmHg 43%
    19:00 +16°C° 0 mm 3 mps 749 mmHg 48%
    20:00 +13°C° 0 mm 3 mps 749 mmHg 52%
    21:00 +12°C° 0 mm 3 mps 750 mmHg 55%
    22:00 +12°C° 0 mm 3 mps 750 mmHg 57%
    23:00 +11°C° 0 mm 3 mps 750 mmHg 60%

    27 July, Saturday

    Time Temperature Precipitation Wind Pressure Humidity
    00:00 +10°C° 0 mm 3 mps 750 mmHg 63%
    01:00 +10°C° 0 mm 3 mps 750 mmHg 66%
    02:00 +9°C° 0 mm 3 mps 750 mmHg 70%
    03:00 +9°C° 0 mm 2 mps 750 mmHg 74%
    04:00 +9°C° 0 mm 2 mps 750 mmHg 78%
    05:00 +8°C° 0 mm 2 mps 750 mmHg 82%
    06:00 +9°C° 0 mm 2 mps 750 mmHg 81%
    07:00 +9°C° 0 mm 2 mps 750 mmHg 81%
    08:00 +9°C° 0 mm 3 mps 751 mmHg 81%
    09:00 +12°C° 0 mm 3 mps 750 mmHg 71%
    10:00 +14°C° 0 mm 3 mps 750 mmHg 61%
    11:00 +17°C° 0 mm 4 mps 750 mmHg 50%
    12:00 +19°C° 0 mm 4 mps 749 mmHg 45%
    13:00 +20°C° 0 mm 4 mps 748 mmHg 40%
    14:00 +22°C° 0 mm 5 mps 747 mmHg 35%
    15:00 +21°C° 0 mm 4 mps 747 mmHg 35%
    16:00 +21°C° 0 mm 4 mps 746 mmHg 35%
    17:00 +21°C° 0 mm 4 mps 746 mmHg 35%
    18:00 +19°C° 0 mm 4 mps 746 mmHg 41%
    19:00 +17°C° 0 mm 4 mps 747 mmHg 48%
    20:00 +14°C° 0 mm 4 mps 747 mmHg 54%
    21:00 +14°C° 0 mm 4 mps 747 mmHg 59%
    22:00 +13°C° 0 mm 4 mps 747 mmHg 64%
    23:00 +12°C° 0 mm 4 mps 747 mmHg 70%

    28 July, Sunday

    Time Temperature Precipitation Wind Pressure Humidity
    00:00 +12°C° 0 mm 3 mps 747 mmHg 73%
    01:00 +11°C° 0 mm 3 mps 747 mmHg 76%
    02:00 +11°C° 0 mm 3 mps 747 mmHg 79%
    03:00 +10°C° 0 mm 3 mps 747 mmHg 82%
    04:00 +10°C° 0 mm 3 mps 746 mmHg 85%
    05:00 +10°C° 0 mm 3 mps 746 mmHg 88%
    06:00 +10°C° 0 mm 3 mps 746 mmHg 87%
    07:00 +10°C° 0 mm 3 mps 746 mmHg 87%
    08:00 +10°C° 0 mm 3 mps 746 mmHg 86%
    09:00 +12°C° 0 mm 4 mps 746 mmHg 77%
    10:00 +15°C° 0 mm 4 mps 746 mmHg 67%
    11:00 +17°C° 0 mm 5 mps 746 mmHg 57%
    12:00 +19°C° 0 mm 5 mps 745 mmHg 52%
    13:00 +21°C° 0 mm 5 mps 744 mmHg 47%
    14:00 +22°C° 0 mm 4 mps 743 mmHg 42%
    15:00 +22°C° 0 mm 4 mps 743 mmHg 42%
    16:00 +22°C° 0 mm 3 mps 743 mmHg 43%
    17:00 +22°C° 0 mm 3 mps 742 mmHg 44%
    18:00 +20°C° 0 mm 3 mps 743 mmHg 50%
    19:00 +19°C° 0 mm 3 mps 743 mmHg 55%
    20:00 +17°C° 0 mm 3 mps 744 mmHg 61%
    21:00 +16°C° 0 mm 3 mps 744 mmHg 66%
    22:00 +14°C° 0 mm 3 mps 744 mmHg 70%
    23:00 +14°C° 0 mm 3 mps 744 mmHg 75%

    29 July, Monday

    Time Temperature Precipitation Wind Pressure Humidity
    00:00 +13°C° 0 mm 3 mps 744 mmHg 77%
    01:00 +13°C° 0 mm 3 mps 744 mmHg 80%
    02:00 +14°C° 0 mm 2 mps 744 mmHg 83%
    03:00 +13°C° 0 mm 2 mps 744 mmHg 85%
    04:00 +13°C° 0 mm 2 mps 744 mmHg 88%
    05:00 +12°C° 0 mm 2 mps 744 mmHg 90%
    06:00 +12°C° 0 mm 2 mps 745 mmHg 89%
    07:00 +12°C° 0 mm 2 mps 745 mmHg 88%
    08:00 +13°C° 0 mm 2 mps 746 mmHg 87%
    09:00 +15°C° 0 mm 2 mps 746 mmHg 79%
    10:00 +17°C° 0 mm 2 mps 746 mmHg 70%
    11:00 +19°C° 0 mm 2 mps 747 mmHg 62%
    12:00 +20°C° 0 mm 2 mps 746 mmHg 58%
    13:00 +21°C° 0 mm 2 mps 745 mmHg 53%
    14:00 +24°C° 0 mm 2 mps 745 mmHg 49%
    15:00 +24°C° 0 mm 2 mps 745 mmHg 50%
    16:00 +24°C° 0 mm 2 mps 745 mmHg 50%
    17:00 +24°C° 0 mm 2 mps 744 mmHg 51%
    18:00 +21°C° 0 mm 2 mps 745 mmHg 57%
    19:00 +19°C° 0 mm 2 mps 745 mmHg 63%
    20:00 +18°C° 0 mm 2 mps 745 mmHg 69%
    21:00 +17°C° 0 mm 2 mps 745 mmHg 71%
    22:00 +17°C° 0 mm 2 mps 745 mmHg 74%
    23:00 +16°C° 0 mm 3 mps 745 mmHg 77%
    Show more